W2OBX Weather Reports


Display with metric or nautical units.
time (UTC)temp
F
wind
direction
speed
MPH
gust
MPH
rain 1hr
in
rain 24hr
in
rain mn
in
humidity
%
barometer
mb
20260508205519 71 128 1.0 2.0 0.00 0.00 0.00 40 1013.8
20260508205015 70 127 0.0 1.0 0.00 0.00 0.00 42 1013.6
20260508204512 70 136 2.0 3.0 0.00 0.00 0.00 48 1013.8
20260508204008 71 125 0.0 2.0 0.00 0.00 0.00 48 1013.6
20260508203504 71 116 0.0 1.0 0.00 0.00 0.00 46 1013.7
20260508203000 70 116 0.0 0.0 0.00 0.00 0.00 43 1013.8
20260508202457 70 116 0.0 1.0 0.00 0.00 0.00 44 1013.8
20260508201954 69 117 0.0 1.0 0.00 0.00 0.00 44 1013.9
20260508201451 69 129 1.0 2.0 0.00 0.00 0.00 41 1014.0
20260508200947 69 176 4.0 5.0 0.00 0.00 0.00 44 1014.3
20260508200445 69 132 2.0 2.0 0.00 0.00 0.00 45 1014.2
20260508195939 69 158 3.0 3.0 0.00 0.00 0.00 44 1014.2
20260508195437 69 144 3.0 5.0 0.00 0.00 0.00 43 1014.3
20260508194933 70 151 3.0 3.0 0.00 0.00 0.00 42 1014.8
20260508194430 70 179 5.0 6.0 0.00 0.00 0.00 40 1015.0
20260508193927 70 174 3.0 5.0 0.00 0.00 0.00 47 1015.0
20260508193424 69 125 1.0 7.0 0.00 0.00 0.00 46 1015.2
20260508192920 69 134 2.0 5.0 0.00 0.00 0.00 42 1015.3
20260508192417 70 122 2.0 3.0 0.00 0.00 0.00 39 1015.3
20260508191914 70 126 1.0 5.0 0.00 0.00 0.00 38 1015.5
20260508191412 71 129 2.0 2.0 0.00 0.00 0.00 37 1015.3
20260508190908 71 109 0.0 1.0 0.00 0.00 0.00 36 1015.5
20260508190405 72 124 0.0 2.0 0.00 0.00 0.00 34 1015.6
20260508185901 71 124 0.0 2.0 0.00 0.00 0.00 35 1015.7
20260508185359 71 133 1.0 2.0 0.00 0.00 0.00 32 1015.7
20260508184856 71 129 0.0 1.0 0.00 0.00 0.00 34 1015.7
20260508184353 69 130 1.0 2.0 0.00 0.00 0.00 29 1015.8
20260508183850 70 165 3.0 5.0 0.00 0.00 0.00 31 1015.6
20260508183346 69 126 2.0 3.0 0.00 0.00 0.00 29 1015.9
20260508182842 69 159 3.0 5.0 0.00 0.00 0.00 33 1015.9
20260508182339 70 138 3.0 3.0 0.00 0.00 0.00 37 1015.9
20260508181834 69 125 0.0 2.0 0.00 0.00 0.00 43 1016.1
20260508181332 68 132 1.0 2.0 0.00 0.00 0.00 39 1016.2
20260508180829 68 127 1.0 2.0 0.00 0.00 0.00 40 1016.1
20260508180325 69 162 3.0 5.0 0.00 0.00 0.00 40 1016.2
20260508175822 69 136 3.0 5.0 0.00 0.00 0.00 39 1016.4
20260508175318 70 108 0.0 1.0 0.00 0.00 0.00 45 1016.4
20260508174817 69 108 0.0 1.0 0.00 0.00 0.00 37 1016.3
20260508174314 68 108 0.0 1.0 0.00 0.00 0.00 41 1016.4
20260508173809 68 114 1.0 1.0 0.00 0.00 0.00 39 1016.6
20260508173307 68 115 1.0 1.0 0.00 0.00 0.00 45 1016.6
20260508172803 67 116 0.0 1.0 0.00 0.00 0.00 43 1016.6
20260508172300 66 104 1.0 1.0 0.00 0.00 0.00 41 1016.8
20260508171756 65 102 1.0 2.0 0.00 0.00 0.00 42 1016.9
20260508171252 65 112 1.0 1.0 0.00 0.00 0.00 47 1016.9
20260508170749 65 119 0.0 1.0 0.00 0.00 0.00 57 1017.0
20260508170247 64 122 0.0 3.0 0.00 0.00 0.00 45 1017.4
20260508165738 64 125 1.0 3.0 0.00 0.00 0.00 46 1017.5
20260508165236 63 150 2.0 3.0 0.00 0.00 0.00 46 1017.6
20260508164732 63 139 2.0 2.0 0.00 0.00 0.00 51 1017.6
20260508164228 63 126 0.0 3.0 0.00 0.00 0.00 47 1017.8
20260508163727 63 125 1.0 2.0 0.00 0.00 0.00 48 1017.9
20260508163224 62 136 2.0 2.0 0.00 0.00 0.00 52 1018.1
20260508162720 62 138 3.0 3.0 0.00 0.00 0.00 50 1017.9
20260508162217 62 129 1.0 1.0 0.00 0.00 0.00 47 1018.0
20260508161714 62 149 3.0 3.0 0.00 0.00 0.00 45 1018.0
20260508161211 62 130 1.0 2.0 0.00 0.00 0.00 51 1018.2
20260508160709 61 127 0.0 0.0 0.00 0.00 0.00 51 1018.2
20260508160207 62 138 2.0 2.0 0.00 0.00 0.00 60 1018.1
20260508155703 62 124 1.0 1.0 0.00 0.00 0.00 54 1018.3
20260508155200 61 124 0.0 1.0 0.00 0.00 0.00 50 1018.4
20260508154657 61 127 1.0 3.0 0.00 0.00 0.00 60 1018.5
20260508154154 59 127 1.0 2.0 0.00 0.00 0.00 65 1018.4
20260508153651 59 118 1.0 1.0 0.00 0.00 0.00 57 1018.6
20260508153148 59 120 0.0 1.0 0.00 0.00 0.00 59 1018.6
20260508152644 59 120 0.0 1.0 0.00 0.00 0.00 73 1018.8
20260508152140 58 119 1.0 1.0 0.00 0.00 0.00 68 1018.7
20260508151637 57 113 0.0 0.0 0.00 0.00 0.00 67 1018.8
20260508151133 57 110 1.0 1.0 0.00 0.00 0.00 63 1018.6
20260508150631 57 129 0.0 1.0 0.00 0.00 0.00 75 1018.7
20260508150127 56 128 1.0 1.0 0.00 0.00 0.00 71 1018.6
20260508145623 56 128 1.0 2.0 0.00 0.00 0.00 71 1018.6
20260508145119 55 127 0.0 0.0 0.00 0.00 0.00 95 1018.7
20260508144617 55 127 0.0 0.0 0.00 0.00 0.00 96 1018.7
20260508144115 55 127 0.0 0.0 0.00 0.00 0.00 97 1019.0
20260508143612 54 127 0.0 0.0 0.00 0.00 0.00 97 1018.9
20260508143109 54 127 1.0 1.0 0.00 0.00 0.00 97 1018.8
20260508142605 54 127 0.0 0.0 0.00 0.00 0.00 98 1018.9
20260508142102 53 127 0.0 0.0 0.00 0.00 0.00 98 1018.9
20260508141559 52 127 0.0 1.0 0.00 0.00 0.00 99 1018.9
20260508141056 52 125 0.0 1.0 0.00 0.00 0.00 99 1019.0
20260508140553 51 126 0.0 0.0 0.00 0.00 0.00 99 1019.0
20260508140050 51 124 0.0 0.0 0.00 0.00 0.00 99 1019.1
20260508135545 51 124 0.0 1.0 0.00 0.00 0.00 99 1019.0
20260508135042 51 124 0.0 0.0 0.00 0.00 0.00 99 1019.0
20260508134538 50 124 0.0 0.0 0.00 0.00 0.00 99 1019.0
20260508134036 50 124 0.0 0.0 0.00 0.00 0.00 99 1018.8
20260508133532 50 124 0.0 0.0 0.00 0.00 0.00 99 1018.9
20260508133030 49 124 0.0 0.0 0.00 0.00 0.00 99 1019.0
20260508132528 49 124 0.0 0.0 0.00 0.00 0.00 99 1019.0
20260508132024 49 124 1.0 1.0 0.00 0.00 0.00 99 1018.9
20260508131519 49 124 0.0 0.0 0.00 0.00 0.00 99 1019.0
20260508131016 48 124 0.0 0.0 0.00 0.00 0.00 99 1018.8
20260508130514 48 124 0.0 0.0 0.00 0.00 0.00 99 1018.8
20260508130009 48 124 0.0 0.0 0.00 0.00 0.00 99 1019.0
20260508125505 48 125 1.0 2.0 0.00 0.00 0.00 99 1019.0
20260508125003 48 123 0.0 0.0 0.00 0.00 0.00 99 1019.0
20260508124501 47 123 0.0 0.0 0.00 0.00 0.00 99 1019.1
20260508123958 47 122 0.0 0.0 0.00 0.00 0.00 99 1018.9
20260508123457 47 122 0.0 0.0 0.00 0.00 0.00 99 1019.0
20260508122952 47 123 0.0 0.0 0.00 0.00 0.00 99 1018.7
20260508122450 47 122 0.0 0.0 0.00 0.00 0.00 99 1018.8
20260508121946 47 122 0.0 0.0 0.00 0.00 0.00 99 1018.7
20260508121445 46 122 0.0 0.0 0.00 0.00 0.00 99 1018.7
20260508120942 46 122 0.0 0.0 0.00 0.00 0.00 99 1018.8
20260508120440 45 121 0.0 0.0 0.00 0.00 0.00 99 1018.6
20260508115938 45 121 0.0 0.0 0.00 0.00 0.00 99 1018.5
20260508115435 44 121 0.0 0.0 0.00 0.00 0.00 99 1018.5
20260508114931 44 121 0.0 0.0 0.00 0.00 0.00 99 1018.6
20260508114429 44 120 0.0 0.0 0.00 0.00 0.00 99 1018.3
20260508113925 43 120 0.0 0.0 0.00 0.00 0.00 99 1018.3
20260508113423 43 118 0.0 0.0 0.00 0.00 0.00 99 1018.3
20260508112920 43 118 0.0 0.0 0.00 0.00 0.00 99 1018.3
20260508112417 43 118 0.0 0.0 0.00 0.00 0.00 99 1018.1
20260508111913 43 118 0.0 0.0 0.00 0.00 0.00 99 1017.9
20260508111410 43 118 0.0 0.0 0.00 0.00 0.00 99 1018.0
20260508110907 43 118 0.0 0.0 0.00 0.00 0.00 99 1017.7
20260508110405 43 118 0.0 0.0 0.00 0.00 0.00 99 1017.8
20260508105905 44 118 0.0 0.0 0.00 0.00 0.00 99 1017.6
20260508105401 44 118 0.0 0.0 0.00 0.00 0.00 99 1017.8
20260508104858 44 118 0.0 0.0 0.00 0.00 0.00 99 1017.6
20260508104356 44 118 0.0 0.0 0.00 0.00 0.00 99 1017.7
20260508103853 44 118 0.0 0.0 0.00 0.00 0.00 99 1017.4
20260508103349 44 118 0.0 0.0 0.00 0.00 0.00 99 1017.4
20260508102847 44 118 0.0 0.0 0.00 0.00 0.00 99 1017.5
20260508102345 44 118 0.0 0.0 0.00 0.00 0.00 99 1017.4
20260508101842 44 118 0.0 0.0 0.00 0.00 0.00 99 1017.3
20260508101339 44 118 0.0 0.0 0.00 0.00 0.00 99 1017.2
20260508100837 44 118 0.0 0.0 0.00 0.00 0.00 99 1017.4
20260508100336 44 118 0.0 0.0 0.00 0.00 0.00 99 1017.2
20260508095830 44 119 0.0 0.0 0.00 0.00 0.00 99 1017.0
20260508095328 44 119 0.0 0.0 0.00 0.00 0.00 99 1017.0
20260508094825 44 119 0.0 0.0 0.00 0.00 0.00 99 1017.1
20260508094322 44 119 0.0 0.0 0.00 0.00 0.00 99 1017.1
20260508093819 44 119 0.0 0.0 0.00 0.00 0.00 99 1016.9
20260508093316 44 119 0.0 0.0 0.00 0.00 0.00 99 1017.0
20260508092814 44 119 0.0 0.0 0.00 0.00 0.00 99 1016.8
20260508092314 44 119 0.0 0.0 0.00 0.00 0.00 99 1017.0
20260508091810 44 119 0.0 0.0 0.00 0.00 0.00 99 1017.0
20260508091306 45 119 0.0 0.0 0.00 0.00 0.00 99 1016.8
20260508090804 45 119 0.0 0.0 0.00 0.00 0.00 99 1016.7
20260508090302 45 119 0.0 0.0 0.00 0.00 0.00 99 1017.2
20260508085757 45 120 0.0 0.0 0.00 0.00 0.00 99 1016.9
20260508085254 45 120 0.0 0.0 0.00 0.00 0.00 99 1017.0
20260508084750 45 120 0.0 0.0 0.00 0.00 0.00 99 1016.8
20260508084248 46 120 0.0 0.0 0.00 0.00 0.00 99 1016.8
20260508083745 46 120 0.0 0.0 0.00 0.00 0.00 99 1016.7
20260508083242 46 120 0.0 0.0 0.00 0.00 0.00 99 1016.8
20260508082737 46 120 0.0 0.0 0.00 0.00 0.00 99 1017.0
20260508082235 46 120 0.0 0.0 0.00 0.00 0.00 99 1016.6
20260508081732 46 120 0.0 0.0 0.00 0.00 0.00 99 1016.6
20260508081229 46 120 0.0 0.0 0.00 0.00 0.00 99 1016.8
20260508080726 47 120 0.0 0.0 0.00 0.00 0.00 99 1016.8
20260508080224 47 120 0.0 0.0 0.00 0.00 0.00 99 1016.7
20260508075720 47 120 0.0 0.0 0.00 0.00 0.00 99 1017.0
20260508075217 47 120 0.0 0.0 0.00 0.00 0.00 99 1017.1
20260508074715 47 120 0.0 0.0 0.00 0.00 0.00 99 1017.0
20260508074212 48 120 0.0 0.0 0.00 0.00 0.00 99 1017.0
20260508073708 48 120 0.0 0.0 0.00 0.00 0.00 99 1017.1
20260508073207 48 120 0.0 0.0 0.00 0.00 0.00 99 1017.1
20260508072702 48 120 0.0 0.0 0.00 0.00 0.00 99 1017.0
20260508072159 48 120 0.0 0.0 0.00 0.00 0.00 99 1016.8
20260508071657 48 120 0.0 0.0 0.00 0.00 0.00 99 1016.8
20260508071155 48 120 0.0 0.0 0.00 0.00 0.00 99 1016.9
20260508070652 48 120 0.0 0.0 0.00 0.00 0.00 99 1016.9
20260508070151 48 121 0.0 0.0 0.00 0.00 0.00 99 1016.9
20260508065647 48 121 0.0 0.0 0.00 0.00 0.00 99 1017.0
20260508065145 48 121 0.0 0.0 0.00 0.00 0.00 99 1016.7
20260508064643 48 121 0.0 0.0 0.00 0.00 0.00 99 1016.9
20260508064141 48 121 0.0 0.0 0.00 0.00 0.00 99 1016.8
20260508063638 48 121 0.0 0.0 0.00 0.00 0.00 99 1016.8
20260508063136 49 121 0.0 0.0 0.00 0.00 0.00 99 1016.8
20260508062633 49 121 0.0 0.0 0.00 0.00 0.00 99 1016.9
20260508062129 49 121 0.0 0.0 0.00 0.00 0.00 99 1016.9
20260508061627 49 121 0.0 0.0 0.00 0.00 0.00 99 1016.8
20260508061125 49 121 0.0 0.0 0.00 0.00 0.00 99 1016.9
20260508060621 49 121 0.0 0.0 0.00 0.00 0.00 99 1017.0
20260508060118 50 121 0.0 0.0 0.00 0.00 0.00 99 1017.1
20260508055614 50 121 0.0 0.0 0.00 0.00 0.00 99 1016.9
20260508055111 50 121 0.0 0.0 0.00 0.00 0.00 99 1016.9
20260508054607 50 121 0.0 0.0 0.00 0.00 0.00 99 1017.0
20260508054105 50 121 0.0 0.0 0.00 0.00 0.00 99 1017.1
20260508053601 50 121 0.0 0.0 0.00 0.00 0.00 99 1017.1
20260508053059 50 121 0.0 0.0 0.00 0.00 0.00 99 1017.1
20260508052557 50 121 0.0 0.0 0.00 0.00 0.00 99 1017.0
20260508052054 50 121 0.0 0.0 0.00 0.00 0.00 99 1017.0
20260508051550 50 121 0.0 0.0 0.00 0.00 0.00 99 1017.1
20260508051045 50 122 0.0 0.0 0.00 0.00 0.00 99 1016.8
20260508050542 50 122 0.0 0.0 0.00 0.00 0.00 99 1016.9
20260508050039 50 122 0.0 0.0 0.00 0.00 0.00 99 1017.0
20260508045535 50 122 0.0 0.0 0.00 0.00 0.00 99 1016.9
20260508045033 50 122 0.0 0.0 0.00 0.00 0.00 99 1016.7
20260508044530 50 122 0.0 0.0 0.00 0.00 0.00 99 1016.7
20260508044026 50 122 0.0 0.0 0.00 0.00 0.00 99 1016.8
20260508043522 50 122 0.0 0.0 0.00 0.00 0.00 99 1016.5
20260508043020 50 122 0.0 0.0 0.00 0.00 0.00 99 1016.5
20260508042517 50 122 0.0 0.0 0.00 0.00 0.00 99 1016.6
20260508042014 50 122 0.0 0.0 0.00 0.00 0.00 99 1016.7
20260508041510 50 122 0.0 0.0 0.00 0.00 0.00 99 1016.6
20260508041007 50 122 0.0 0.0 0.00 0.00 0.00 98 1016.4
20260508040504 50 122 0.0 0.0 0.00 0.00 0.00 98 1016.3
20260508040002 51 122 0.0 0.0 0.00 0.00 0.00 98 1016.3
20260508035458 51 122 0.0 0.0 0.00 0.00 0.00 98 1016.3
20260508034955 51 122 0.0 0.0 0.00 0.00 0.00 98 1016.4
20260508034453 51 122 0.0 0.0 0.00 0.00 0.00 98 1016.2
20260508033949 51 122 0.0 0.0 0.00 0.00 0.00 98 1016.1
20260508033447 51 122 0.0 0.0 0.00 0.00 0.00 98 1016.1
20260508032944 52 122 0.0 0.0 0.00 0.00 0.00 98 1016.3
20260508032436 52 122 0.0 0.0 0.00 0.00 0.00 98 1015.9
20260508031932 52 122 0.0 0.0 0.00 0.00 0.00 98 1015.9
20260508031430 52 122 0.0 0.0 0.00 0.00 0.00 98 1016.2
20260508030925 52 122 0.0 0.0 0.00 0.00 0.00 98 1016.1
20260508030423 52 122 0.0 0.0 0.00 0.00 0.00 98 1016.2
20260508025920 52 122 0.0 0.0 0.00 0.00 0.00 98 1016.2
20260508025416 52 122 0.0 0.0 0.00 0.00 0.00 98 1016.3
20260508024913 53 122 0.0 0.0 0.00 0.00 0.00 98 1016.1
20260508024410 53 122 0.0 0.0 0.00 0.00 0.00 98 1016.1
20260508023907 53 122 0.0 0.0 0.00 0.00 0.00 98 1016.2
20260508023404 53 122 0.0 0.0 0.00 0.00 0.00 98 1015.9
20260508022901 53 122 0.0 0.0 0.00 0.00 0.00 98 1015.9
20260508022356 53 122 0.0 0.0 0.00 0.00 0.00 98 1016.2
20260508021853 53 122 0.0 0.0 0.00 0.00 0.00 98 1015.8
20260508021349 53 122 0.0 0.0 0.00 0.00 0.00 98 1015.6
20260508020845 53 122 0.0 0.0 0.00 0.00 0.00 98 1015.5
20260508020343 53 122 0.0 0.0 0.00 0.00 0.00 98 1015.5
20260508015840 53 122 0.0 0.0 0.00 0.00 0.00 98 1015.5
20260508015338 54 122 0.0 0.0 0.00 0.00 0.00 98 1015.3
20260508014834 54 122 0.0 0.0 0.00 0.00 0.00 97 1015.5
20260508014332 54 122 0.0 0.0 0.00 0.00 0.00 97 1015.4
20260508013832 54 122 0.0 0.0 0.00 0.00 0.00 97 1015.3
20260508013329 54 122 0.0 0.0 0.00 0.00 0.00 97 1015.1
20260508012826 54 122 0.0 0.0 0.00 0.00 0.00 97 1014.8
20260508012323 55 122 0.0 0.0 0.00 0.00 0.00 97 1014.7
20260508011821 55 122 0.0 0.0 0.00 0.00 0.00 97 1014.8
20260508011318 55 122 0.0 0.0 0.00 0.00 0.00 97 1014.7
20260508010815 55 122 0.0 0.0 0.00 0.00 0.00 97 1014.6
20260508010313 55 123 0.0 0.0 0.00 0.00 0.00 96 1014.8
20260508005810 55 122 0.0 0.0 0.00 0.00 0.00 96 1014.6
20260508005307 55 121 0.0 0.0 0.00 0.00 0.00 96 1014.8
20260508004803 55 121 0.0 0.0 0.00 0.00 0.00 96 1014.4
20260508004259 55 121 0.0 0.0 0.00 0.00 0.00 96 1014.4
20260508003755 56 121 0.0 0.0 0.00 0.00 0.00 95 1014.4
20260508003253 56 122 0.0 0.0 0.00 0.00 0.00 95 1014.3
20260508002749 56 122 0.0 0.0 0.00 0.00 0.00 95 1014.2
20260508002247 56 122 0.0 0.0 0.00 0.00 0.00 95 1014.1
20260508001742 56 122 0.0 0.0 0.00 0.00 0.00 95 1014.2
20260508001238 57 122 0.0 0.0 0.00 0.00 0.00 94 1014.0
20260508000735 57 122 0.0 0.0 0.00 0.00 0.00 94 1013.8
20260508000234 57 122 0.0 0.0 0.00 0.00 0.00 94 1014.0
20260507235728 57 122 0.0 0.0 0.00 0.00 0.00 94 1014.1
20260507235226 57 122 0.0 0.0 0.00 0.00 0.00 93 1013.9
20260507234723 57 122 0.0 0.0 0.00 0.00 0.00 93 1014.1
20260507234219 58 122 0.0 0.0 0.00 0.00 0.00 92 1014.3
20260507233715 58 122 0.0 0.0 0.00 0.00 0.00 92 1014.3
20260507233214 58 122 0.0 0.0 0.00 0.00 0.00 91 1014.0
20260507232710 59 122 0.0 0.0 0.00 0.00 0.00 91 1014.1
20260507232208 59 122 0.0 0.0 0.00 0.00 0.00 90 1014.0
20260507231704 59 122 0.0 2.0 0.00 0.00 0.00 90 1014.2
20260507231201 59 137 2.0 3.0 0.00 0.00 0.00 89 1014.3
20260507230657 59 146 2.0 3.0 0.00 0.00 0.00 89 1014.2
20260507230154 59 123 1.0 1.0 0.00 0.00 0.00 91 1014.1
20260507225649 59 122 0.0 1.0 0.00 0.00 0.00 91 1014.3
20260507225146 59 127 1.0 3.0 0.00 0.00 0.00 90 1014.3
20260507224641 59 145 3.0 3.0 0.00 0.00 0.00 89 1014.4
20260507224138 59 133 2.0 2.0 0.00 0.00 0.00 90 1014.4
20260507223634 60 149 3.0 3.0 0.00 0.00 0.00 88 1014.4
20260507223131 60 126 1.0 2.0 0.00 0.00 0.00 87 1014.2
20260507222628 60 149 2.0 5.0 0.00 0.00 0.00 89 1014.3
20260507222125 60 127 1.0 3.0 0.00 0.00 0.00 86 1014.4
20260507221621 60 165 2.0 3.0 0.00 0.00 0.00 87 1014.3
20260507221117 60 146 3.0 3.0 0.00 0.00 0.00 87 1014.2
20260507220615 59 141 2.0 5.0 0.00 0.00 0.00 87 1014.2
20260507220112 59 125 1.0 6.0 0.00 0.00 0.00 89 1014.2
20260507215608 59 155 4.0 6.0 0.00 0.00 0.00 90 1014.1
20260507215106 60 147 3.0 3.0 0.00 0.00 0.00 90 1014.1
20260507214603 59 123 1.0 3.0 0.00 0.00 0.00 89 1014.0
20260507214059 59 152 2.0 3.0 0.00 0.00 0.00 91 1014.1
20260507213555 59 147 3.0 3.0 0.00 0.00 0.00 89 1013.9
20260507213053 59 144 3.0 5.0 0.00 0.00 0.00 90 1013.9
20260507212549 60 162 3.0 3.0 0.00 0.00 0.00 87 1013.9
20260507212046 60 128 2.0 2.0 0.00 0.00 0.00 85 1013.7
20260507211542 60 126 1.0 2.0 0.00 0.00 0.00 87 1013.6
20260507211038 60 118 0.0 1.0 0.00 0.00 0.00 92 1013.8
20260507210536 59 121 0.0 1.0 0.00 0.00 0.00 92 1013.6
20260507210032 59 173 3.0 5.0 0.00 0.00 0.00 90 1013.6